Location: La Pernelle
(49.6188°N, 1.2999°W)
Time: 10:34:04
(UTC+00:00)

Meteor 2-20 - Pass Details

Date: 25 October 2021
Orbit: 939 x 958 km, 82.5° (Epoch: 08 December)

Event Time Altitude Azimuth Distance (km) Brightness Sun altitude
Rises 04:27:48 0° 156° (SSE) 3,607 7.7 -22.4°
Reaches altitude 10° 04:30:32 10° 146° (SE) 2,664 7.1 -22.0°
Maximum altitude 04:35:47 31° 86° (E) 1,587 6.3 -21.1°
Drops below altitude 10° 04:41:01 10° 27° (NNE) 2,670 7.2 -20.3°
Sets 04:43:46 0° 17° (NNE) 3,617 7.8 -19.8°
